Location: Banios
(43.0451°N, 0.2335°E)
Time: 04:47:20
(UTC+00:00)

CZ-4B R/B - Pass Details

Date: 25 January 2021
Orbit: 387 x 458 km, 97.6° (Epoch: 26 February)

Event Time Altitude Azimuth Distance (km) Brightness Sun altitude
Rises 04:47:29 0° 155° (SSE) 2,455 5.5 -28.0°
Reaches altitude 10° 04:49:31 10° 151° (SSE) 1,594 4.5 -27.6°
Enters shadow 04:50:03 14° 148° (SSE) 1,378 4.2 -27.5°
